• In Czech Republic
  • List of Countries
  • For 7 days
  • Water Temperature
  • Satellite Maps
  • Weather Map
  • Weather Widgets
  • user-avatar
    Login

    Hourly Weather Pyshnenky

    Today, 19 August, Sunday

    Time Temperature Precipitation Wind Pressure Humidity
    00:00 +17°C° 0 mm 3 mps 751 mmHg 71%
    01:00 +16°C° 0 mm 3 mps 751 mmHg 72%
    02:00 +16°C° 0 mm 2 mps 751 mmHg 72%
    03:00 +16°C° 0 mm 3 mps 751 mmHg 74%
    04:00 +16°C° 0 mm 3 mps 751 mmHg 75%
    05:00 +14°C° 0 mm 3 mps 751 mmHg 76%
    06:00 +17°C° 0 mm 3 mps 751 mmHg 70%
    07:00 +20°C° 0 mm 3 mps 751 mmHg 64%
    08:00 +22°C° 0 mm 3 mps 752 mmHg 56%
    09:00 +24°C° 0 mm 3 mps 752 mmHg 51%
    10:00 +26°C° 0 mm 3 mps 751 mmHg 46%
    11:00 +27°C° 0 mm 3 mps 751 mmHg 41%
    12:00 +28°C° 0 mm 3 mps 751 mmHg 39%
    13:00 +28°C° 0 mm 3 mps 751 mmHg 37%
    14:00 +28°C° 0 mm 2 mps 751 mmHg 35%
    15:00 +28°C° 0 mm 2 mps 751 mmHg 36%
    16:00 +28°C° 0 mm 1 mps 751 mmHg 38%
    17:00 +28°C° 0 mm 1 mps 750 mmHg 39%
    18:00 +26°C° 0 mm 1 mps 750 mmHg 43%
    19:00 +24°C° 0 mm 2 mps 750 mmHg 47%
    20:00 +20°C° 0 mm 2 mps 750 mmHg 51%
    21:00 +20°C° 0 mm 2 mps 750 mmHg 52%
    22:00 +19°C° 0 mm 2 mps 750 mmHg 53%
    23:00 +19°C° 0 mm 2 mps 750 mmHg 55%

    Tomorrow, 20 August, Monday

    Time Temperature Precipitation Wind Pressure Humidity
    00:00 +18°C° 0 mm 2 mps 750 mmHg 56%
    01:00 +18°C° 0 mm 2 mps 750 mmHg 56%
    02:00 +17°C° 0 mm 2 mps 750 mmHg 57%
    03:00 +17°C° 0 mm 2 mps 750 mmHg 57%
    04:00 +16°C° 0 mm 2 mps 750 mmHg 58%
    05:00 +16°C° 0 mm 2 mps 750 mmHg 58%
    06:00 +18°C° 0 mm 2 mps 750 mmHg 54%
    07:00 +20°C° 0 mm 2 mps 750 mmHg 50%
    08:00 +23°C° 0 mm 2 mps 750 mmHg 46%
    09:00 +25°C° 0 mm 2 mps 750 mmHg 42%
    10:00 +26°C° 0 mm 2 mps 750 mmHg 38%
    11:00 +28°C° 0 mm 2 mps 750 mmHg 34%
    12:00 +28°C° 0 mm 2 mps 750 mmHg 33%
    13:00 +29°C° 0 mm 2 mps 749 mmHg 32%
    14:00 +29°C° 0 mm 2 mps 749 mmHg 31%
    15:00 +29°C° 0 mm 2 mps 749 mmHg 33%
    16:00 +29°C° 0 mm 2 mps 749 mmHg 35%
    17:00 +29°C° 0 mm 1 mps 748 mmHg 38%
    18:00 +27°C° 0 mm 1 mps 748 mmHg 40%
    19:00 +24°C° 0 mm 1 mps 748 mmHg 42%
    20:00 +22°C° 0 mm 1 mps 748 mmHg 44%
    21:00 +21°C° 0 mm 2 mps 748 mmHg 44%
    22:00 +20°C° 0 mm 2 mps 748 mmHg 44%
    23:00 +20°C° 0 mm 2 mps 748 mmHg 44%

    Day after tomorrow, 21 August, Tuesday

    Time Temperature Precipitation Wind Pressure Humidity
    00:00 +19°C° 0 mm 2 mps 748 mmHg 44%
    01:00 +19°C° 0 mm 2 mps 748 mmHg 44%
    02:00 +18°C° 0 mm 2 mps 748 mmHg 43%
    03:00 +18°C° 0 mm 2 mps 747 mmHg 44%
    04:00 +18°C° 0 mm 2 mps 747 mmHg 44%
    05:00 +17°C° 0 mm 2 mps 747 mmHg 45%
    06:00 +19°C° 0 mm 2 mps 747 mmHg 43%
    07:00 +21°C° 0 mm 3 mps 747 mmHg 42%
    08:00 +24°C° 0 mm 3 mps 747 mmHg 41%
    09:00 +26°C° 0 mm 3 mps 747 mmHg 38%
    10:00 +28°C° 0 mm 4 mps 747 mmHg 34%
    11:00 +30°C° 0 mm 4 mps 747 mmHg 31%
    12:00 +30°C° 0 mm 4 mps 747 mmHg 31%
    13:00 +30°C° 0 mm 4 mps 746 mmHg 32%
    14:00 +32°C° 0 mm 4 mps 746 mmHg 33%
    15:00 +30°C° 0 mm 4 mps 746 mmHg 37%
    16:00 +30°C° 0 mm 4 mps 745 mmHg 41%
    17:00 +29°C° 0 mm 3 mps 745 mmHg 46%
    18:00 +27°C° 0.1 mm 3 mps 745 mmHg 53%
    19:00 +25°C° 0.1 mm 3 mps 746 mmHg 61%
    20:00 +22°C° 0.1 mm 3 mps 746 mmHg 69%
    21:00 +21°C° 0.1 mm 3 mps 746 mmHg 75%
    22:00 +20°C° 0.1 mm 3 mps 746 mmHg 82%
    23:00 +19°C° 0.1 mm 3 mps 746 mmHg 88%

    22 August, Wednesday

    Time Temperature Precipitation Wind Pressure Humidity
    00:00 +19°C° 0 mm 3 mps 746 mmHg 89%
    01:00 +18°C° 0 mm 3 mps 747 mmHg 91%
    02:00 +18°C° 0 mm 3 mps 747 mmHg 92%
    03:00 +17°C° 0 mm 3 mps 747 mmHg 92%
    04:00 +16°C° 0 mm 3 mps 748 mmHg 92%
    05:00 +14°C° 0 mm 3 mps 748 mmHg 92%
    06:00 +17°C° 0 mm 3 mps 748 mmHg 84%
    07:00 +18°C° 0 mm 4 mps 749 mmHg 76%
    08:00 +20°C° 0 mm 4 mps 749 mmHg 68%
    09:00 +21°C° 0 mm 4 mps 750 mmHg 61%
    10:00 +22°C° 0 mm 5 mps 750 mmHg 53%
    11:00 +23°C° 0 mm 5 mps 750 mmHg 46%
    12:00 +25°C° 0 mm 5 mps 750 mmHg 44%
    13:00 +25°C° 0 mm 5 mps 750 mmHg 43%
    14:00 +25°C° 0 mm 5 mps 750 mmHg 41%
    15:00 +25°C° 0 mm 5 mps 750 mmHg 43%
    16:00 +23°C° 0 mm 4 mps 751 mmHg 44%
    17:00 +23°C° 0 mm 4 mps 751 mmHg 46%
    18:00 +21°C° 0 mm 4 mps 751 mmHg 51%
    19:00 +19°C° 0 mm 3 mps 751 mmHg 56%
    20:00 +17°C° 0 mm 3 mps 752 mmHg 61%
    21:00 +16°C° 0 mm 3 mps 752 mmHg 63%
    22:00 +14°C° 0 mm 3 mps 752 mmHg 66%
    23:00 +14°C° 0 mm 3 mps 752 mmHg 68%

    23 August, Thursday

    Time Temperature Precipitation Wind Pressure Humidity
    00:00 +13°C° 0 mm 3 mps 753 mmHg 70%
    01:00 +13°C° 0 mm 3 mps 753 mmHg 71%
    02:00 +13°C° 0 mm 2 mps 753 mmHg 73%
    03:00 +13°C° 0 mm 2 mps 753 mmHg 74%
    04:00 +12°C° 0 mm 2 mps 753 mmHg 75%
    05:00 +12°C° 0 mm 2 mps 753 mmHg 76%
    06:00 +14°C° 0 mm 2 mps 753 mmHg 69%
    07:00 +16°C° 0 mm 2 mps 753 mmHg 62%
    08:00 +18°C° 0 mm 3 mps 754 mmHg 55%
    09:00 +20°C° 0 mm 3 mps 753 mmHg 50%
    10:00 +21°C° 0 mm 3 mps 753 mmHg 45%
    11:00 +22°C° 0 mm 3 mps 753 mmHg 40%
    12:00 +24°C° 0 mm 3 mps 753 mmHg 38%
    13:00 +25°C° 0 mm 3 mps 753 mmHg 36%
    14:00 +25°C° 0 mm 3 mps 753 mmHg 34%
    15:00 +25°C° 0 mm 3 mps 752 mmHg 37%
    16:00 +24°C° 0 mm 3 mps 752 mmHg 39%
    17:00 +24°C° 0 mm 3 mps 752 mmHg 41%
    18:00 +21°C° 0 mm 3 mps 752 mmHg 46%
    19:00 +19°C° 0 mm 3 mps 752 mmHg 51%
    20:00 +17°C° 0 mm 3 mps 752 mmHg 55%
    21:00 +16°C° 0 mm 3 mps 752 mmHg 57%
    22:00 +16°C° 0 mm 3 mps 752 mmHg 58%
    23:00 +14°C° 0 mm 3 mps 752 mmHg 59%

    24 August, Friday

    Time Temperature Precipitation Wind Pressure Humidity
    00:00 +13°C° 0 mm 3 mps 752 mmHg 59%
    01:00 +13°C° 0 mm 3 mps 752 mmHg 60%
    02:00 +13°C° 0 mm 3 mps 752 mmHg 60%
    03:00 +12°C° 0 mm 3 mps 752 mmHg 61%
    04:00 +12°C° 0 mm 3 mps 752 mmHg 61%
    05:00 +11°C° 0 mm 3 mps 752 mmHg 62%
    06:00 +13°C° 0 mm 3 mps 752 mmHg 58%
    07:00 +17°C° 0 mm 4 mps 752 mmHg 54%
    08:00 +19°C° 0 mm 4 mps 752 mmHg 51%
    09:00 +21°C° 0 mm 4 mps 752 mmHg 45%
    10:00 +23°C° 0 mm 4 mps 751 mmHg 40%
    11:00 +26°C° 0 mm 4 mps 751 mmHg 35%
    12:00 +26°C° 0 mm 4 mps 751 mmHg 34%
    13:00 +27°C° 0 mm 4 mps 750 mmHg 32%
    14:00 +27°C° 0 mm 4 mps 750 mmHg 31%
    15:00 +27°C° 0 mm 4 mps 750 mmHg 34%
    16:00 +26°C° 0 mm 4 mps 750 mmHg 37%
    17:00 +26°C° 0 mm 3 mps 749 mmHg 40%
    18:00 +23°C° 0 mm 4 mps 749 mmHg 44%
    19:00 +21°C° 0 mm 4 mps 749 mmHg 48%
    20:00 +19°C° 0 mm 4 mps 749 mmHg 52%
    21:00 +18°C° 0 mm 4 mps 749 mmHg 52%
    22:00 +18°C° 0 mm 4 mps 749 mmHg 52%
    23:00 +17°C° 0 mm 4 mps 749 mmHg 52%
    Show more